Regional Weather Roundup
Issued by NWS

Home | Current Version | Previous Version | Graphics & Text | Print | Product List | Glossary On
Versions: 1 2 3 4 5 6 7 8 9 10 11 12 13 14 15 16 17 18 19 20 21 22 23 24 25 26 27 28 29 30 31 32 33 34 35 36 37 38 39 40 41 42 43 44 45 46 47 48 49 50
000
ASUS43 KBIS 040810
RWRND

NORTH DAKOTA REGIONAL WEATHER ROUNDUP
NATIONAL WEATHER SERVICE BISMARCK ND
300 AM CDT SAT JUL 04 2015

NOTE: "FAIR" INDICATES FEW OR NO CLOUDS BELOW 12,000 FEET WITH NO
SIGNIFICANT WEATHER AND/OR OBSTRUCTIONS TO VISIBILITY.


NDZ001>003-009>011-017-040900-
NORTHWEST NORTH DAKOTA

CITY           SKY/WX    TMP DP  RH WIND       PRES   REMARKS
WILLISTON      PTCLDY    72  63  73 SW5       29.81F HAZE
MINOT          CLEAR     64  61  90 CALM      29.83F FOG
MINOT AFB      CLEAR     64  64 100 S6        29.82F
$$

NDZ018>021-031>035-040>046-040900-
SOUTHWEST NORTH DAKOTA

CITY           SKY/WX    TMP DP  RH WIND       PRES   REMARKS
BISMARCK       CLOUDY    65  63  93 E3        29.87F FOG
DICKINSON      CLEAR     64  61  90 S8        29.85F FOG
GARRISON         N/A     66  63  90 SE3       29.86F
HETTINGER ARPT CLEAR     63  59  87 SE6       29.90F FOG
$$

NDZ004>008-012>016-024-026-027-054-040900-
NORTHEAST NORTH DAKOTA

CITY           SKY/WX    TMP DP  RH WIND       PRES   REMARKS
GRAND FORKS    MOCLDY    60  58  92 CALM      29.88F FOG
GRND FRKS AFB  CLEAR     60  59  96 S3        29.89S
DEVILS LAKE    CLEAR     66  59  77 SE8       29.87F
$$

NDZ022-023-025-028>030-036>039-047>053-040900-
SOUTHEAST NORTH DAKOTA

CITY           SKY/WX    TMP DP  RH WIND       PRES   REMARKS
FARGO          CLEAR     64  60  87 S3        29.91R FOG
JAMESTOWN      CLOUDY    66  63  90 S6        29.90F FOG
$$




USA.gov is the U.S. government's official web portal to all federal, state and local government web resources and services.